Temp
-12 -12 -12 -12 -13 -14 -13 -12 -12 -13 -14 -13 -13 -12 -13 -13 -14 -13 -14 -14 -13 -14 -14 -15 -15 -15 -15 -15 -15 -14 -13 -13 -13 -13 -14 -14 -14 -14 -14 -14 -14 -14 -14 -14
-12 -11 -13 -13 -13 -14 -13 -13 -13 -13 -13 -13 -13 -12 -13 -13 -14 -13 -14 -14 -13 -14 -14 -15 -15 -15 -15 -15 -15 -14 -14 -13 -14 -14 -13 -13 -14 -14 -14 -14 -14 -14 -14 -14
-12 -12 -13 -13 -13 -14 -13 -12 -13 -14 -13 -13 -12 -12 -13 -13 -14 -14 -14 -14 -13 -14 -14 -15 -15 -15 -15 -15 -15 -14 -14 -14 -14 -14 -14 -14 -14 -14 -14 -14 -14 -14 -14 -14
-12 -13 -13 -13 -13 -13 -13 -13 -14 -14 -13 -13 -13 -11 -12 -13 -13 -14 -14 -14 -14 -14 -14 -15 -15 -15 -15 -15 -14 -15 -14 -14 -15 -14 -14 -13 -13 -14 -14 -14 -14 -14 -14 -14
-13 -13 -13 -13 -14 -14 -14 -14 -14 -14 -13 -12 -12 -12 -12 -12 -13 -14 -14 -14 -14 -14 -15 -14 -15 -14 -15 -14 -15 -15 -15 -15 -15 -15 -14 -14 -14 -14 -15 -15 -16 -16 -16 -16
-13 -14 -14 -13 -14 -14 -14 -14 -13 -13 -13 -12 -12 -13 -11 -13 -13 -13 -14 -14 -13 -13 -14 -14 -14 -14 -15 -15 -15 -15 -15 -15 -15 -15 -15 -15 -15 -15 -15 -16 -16 -16 -16 -16
-14 -14 -13 -14 -14 -14 -14 -13 -13 -13 -13 -12 -12 -13 -12 -13 -13 -13 -14 -14 -13 -13 -13 -14 -15 -14 -15 -15 -15 -15 -15 -15 -15 -15 -15 -15 -15 -15 -16 -15 -16 -16 -16 -16
-15 -15 -15 -14 -14 -14 -14 -14 -14 -14 -14 -13 -13 -11 -12 -13 -13 -13 -13 -14 -14 -14 -14 -14 -14 -14 -14 -15 -15 -15 -15 -15 -15 -15 -15 -15 -16 -16 -16 -16 -16 -16 -16 -15
-15 -14 -14 -15 -15 -15 -14 -14 -15 -14 -14 -13 -12 -12 -12 -13 -13 -13 -13 -14 -14 -14 -14 -14 -14 -14 -15 -15 -15 -15 -15 -15 -15 -15 -15 -15 -15 -15 -15 -16 -16 -16 -16 -16
-14 -14 -14 -16 -15 -15 -14 -15 -15 -14 -13 -13 -12 -11 -12 -14 -13 -13 -14 -14 -14 -15 -15 -14 -14 -14 -15 -15 -15 -15 -15 -16 -16 -16 -16 -16 -15 -15 -15 -15 -16 -16 -16 -15
-14 -14 -14 -14 -15 -15 -15 -14 -14 -14 -13 -12 -12 -11 -12 -14 -14 -13 -14 -14 -14 -14 -15 -15 -15 -15 -14 -14 -15 -15 -15 -16 -16 -16 -16 -16 -16 -16 -16 -16 -17 -16 -16 -16
-15 -14 -14 -14 -14 -14 -15 -15 -15 -15 -14 -14 -13 -11 -13 -14 -15 -14 -14 -15 -14 -14 -15 -15 -15 -15 -15 -15 -15 -15 -15 -15 -16 -15 -15 -16 -15 -16 -15 -16 -16 -16 -16 -17
-15 -15 -14 -14 -15 -14 -14 -14 -14 -14 -14 -12 -13 -11 -13 -14 -15 -16 -15 -15 -15 -15 -15 -14 -15 -15 -15 -15 -15 -15 -15 -16 -16 -15 -16 -16 -16 -16 -16 -16 -15 -16 -16 -16
-17 -16 -15 -15 -15 -16 -14 -14 -14 -14 -13 -13 -12 -12 -13 -14 -15 -16 -15 -15 -16 -16 -15 -15 -15 -15 -15 -15 -15 -15 -15 -16 -16 -16 -16 -15 -15 -16 -16 -16 -16 -16 -16 -15
-19 -17 -16 -15 -16 -16 -15 -15 -14 -14 -14 -14 -13 -13 -14 -14 -14 -15 -16 -16 -15 -16 -16 -16 -16 -16 -16 -15 -15 -15 -16 -16 -16 -16 -16 -16 -15 -16 -16 -16 -16 -16 -16 -16
-20 -18 -18 -17 -16 -17 -16 -16 -16 -16 -15 -14 -13 -13 -14 -14 -15 -15 -15 -16 -15 -15 -16 -16 -16 -16 -16 -16 -16 -16 -16 -16 -16 -16 -16 -16 -16 -16 -16 -16 -16 -16 -16 -16
-20 -20 -19 -18 -18 -18 -16 -17 -17 -16 -16 -15 -15 -13 -14 -14 -15 -15 -15 -16 -15 -15 -16 -16 -16 -16 -16 -16 -17 -17 -17 -16 -16 -16 -16 -16 -16 -16 -16 -16 -16 -16 -16 -16
-20 -20 -19 -19 -19 -18 -17 -18 -17 -17 -16 -16 -15 -15 -16 -16 -15 -15 -15 -16 -16 -16 -16 -16 -16 -16 -16 -17 -17 -17 -18 -18 -17 -17 -17 -16 -16 -16 -16 -16 -16 -16 -16 -16
-20 -21 -20 -19 -19 -18 -18 -18 -18 -17 -17 -17 -16 -16 -16 -16 -16 -15 -16 -16 -16 -16 -15 -15 -16 -17 -17 -17 -17 -17 -18 -18 -17 -17 -17 -17 -16 -16 -16 -16 -16 -16 -16 -16
-20 -20 -21 -20 -19 -18 -17 -19 -19 -18 -16 -18 -17 -16 -16 -16 -15 -15 -16 -16 -16 -16 -16 -16 -16 -16 -17 -17 -17 -17 -17 -18 -18 -17 -17 -17 -16 -16 -16 -16 -16 -16 -16 -16
-20 -20 -20 -20 -21 -19 -19 -19 -19 -19 -17 -18 -17 -17 -16 -16 -16 -16 -16 -17 -17 -17 -17 -17 -17 -17 -17 -17 -17 -17 -17 -18 -17 -17 -17 -17 -16 -16 -16 -16 -16 -16 -16 -16
-21 -21 -20 -20 -20 -19 -20 -20 -19 -19 -19 -18 -19 -17 -17 -17 -17 -17 -17 -16 -16 -17 -17 -16 -17 -17 -17 -17 -17 -17 -17 -17 -17 -17 -17 -16 -16 -16 -16 -16 -16 -16 -16 -17
-20 -21 -21 -21 -20 -20 -20 -20 -20 -20 -18 -18 -19 -18 -18 -17 -17 -17 -17 -17 -17 -17 -16 -17 -16 -17 -17 -17 -17 -17 -18 -17 -17 -17 -17 -17 -16 -16 -16 -16 -16 -16 -16 -17
-21 -21 -21 -21 -20 -20 -20 -20 -20 -21 -20 -19 -19 -18 -18 -17 -17 -17 -17 -17 -16 -17 -17 -17 -17 -17 -17 -16 -17 -17 -17 -17 -18 -17 -17 -17 -17 -17 -17 -17 -17 -17 -17 -18
-21 -21 -21 -20 -20 -21 -21 -21 -21 -21 -20 -20 -19 -18 -18 -18 -18 -18 -17 -18 -17 -18 -18 -17 -17 -16 -17 -17 -17 -17 -17 -18 -18 -17 -18 -18 -17 -17 -17 -18 -18 -18 -18 -18
-21 -21 -21 -21 -21 -21 -21 -21 -21 -21 -20 -20 -20 -19 -19 -19 -18 -17 -17 -17 -17 -17 -17 -17 -18 -18 -17 -17 -17 -17 -18 -17 -17 -17 -18 -18 -18 -18 -17 -18 -18 -18 -18 -18
Height
5725 5724 5733 5737 5736 5735 5735 5735 5738 5738 5736 5730 5729 5731 5730 5727 5729 5726 5727 5727 5726 5723 5718 5715 5715 5715 5714 5713 5712 5710 5708 5709 5712 5714 5715 5718 5722 5724 5728 5730 5733 5737 5739 5741
5714 5716 5730 5727 5727 5728 5730 5731 5733 5733 5730 5726 5726 5727 5728 5725 5725 5724 5725 5724 5723 5722 5718 5717 5716 5715 5714 5713 5713 5713 5712 5711 5712 5712 5712 5714 5718 5722 5725 5727 5729 5731 5735 5738
5706 5714 5717 5719 5720 5722 5725 5728 5728 5727 5722 5722 5720 5721 5724 5722 5721 5721 5723 5722 5721 5720 5717 5717 5716 5715 5714 5714 5713 5713 5713 5712 5713 5713 5711 5713 5716 5718 5720 5723 5725 5728 5730 5732
5696 5702 5709 5711 5714 5716 5719 5722 5720 5720 5718 5718 5716 5715 5719 5717 5717 5718 5720 5720 5718 5718 5716 5715 5715 5715 5715 5714 5714 5714 5714 5713 5713 5715 5715 5715 5715 5717 5719 5722 5723 5724 5726 5727
5691 5699 5700 5702 5710 5708 5715 5713 5711 5713 5712 5712 5715 5711 5716 5715 5714 5715 5717 5718 5716 5715 5715 5713 5714 5715 5716 5715 5714 5713 5713 5712 5713 5713 5713 5714 5716 5719 5721 5722 5722 5723 5724 5727
5679 5687 5689 5692 5698 5697 5705 5705 5705 5705 5707 5706 5712 5707 5709 5712 5711 5711 5713 5714 5714 5712 5712 5712 5712 5713 5714 5714 5714 5713 5714 5714 5715 5715 5714 5716 5717 5717 5717 5719 5720 5722 5724 5726
5673 5679 5684 5686 5691 5692 5696 5700 5699 5699 5701 5703 5705 5702 5704 5708 5707 5707 5709 5711 5711 5711 5709 5710 5710 5710 5712 5712 5712 5712 5712 5713 5713 5713 5713 5715 5717 5716 5717 5719 5720 5722 5723 5726
5662 5668 5675 5682 5685 5688 5690 5693 5692 5694 5695 5697 5697 5694 5700 5703 5704 5705 5707 5709 5708 5708 5708 5708 5707 5708 5710 5710 5711 5711 5711 5712 5712 5711 5711 5712 5712 5713 5714 5716 5717 5718 5720 5722
5655 5659 5667 5672 5676 5678 5682 5682 5691 5688 5686 5687 5691 5692 5696 5698 5699 5702 5702 5705 5706 5705 5706 5706 5705 5706 5707 5707 5708 5708 5709 5710 5709 5708 5709 5709 5709 5709 5710 5712 5714 5714 5714 5715
5648 5651 5657 5662 5666 5669 5671 5677 5677 5676 5678 5680 5682 5686 5692 5692 5692 5697 5698 5700 5702 5702 5703 5703 5704 5704 5705 5704 5705 5705 5706 5705 5705 5705 5706 5706 5707 5708 5707 5708 5708 5709 5710 5711
5642 5645 5651 5654 5658 5662 5665 5668 5669 5672 5672 5672 5675 5679 5688 5688 5687 5691 5694 5695 5697 5698 5698 5700 5699 5700 5701 5701 5701 5701 5702 5702 5701 5701 5701 5701 5701 5701 5701 5701 5702 5705 5705 5705
5632 5636 5641 5647 5650 5653 5656 5659 5662 5661 5665 5668 5670 5672 5680 5685 5683 5685 5688 5692 5693 5694 5695 5695 5696 5697 5696 5697 5698 5697 5697 5698 5697 5697 5697 5698 5698 5698 5697 5699 5697 5697 5698 5697
5624 5628 5632 5639 5644 5645 5648 5651 5654 5656 5658 5659 5663 5665 5675 5678 5680 5679 5680 5683 5686 5689 5690 5691 5692 5692 5691 5692 5693 5692 5692 5691 5690 5690 5693 5693 5692 5693 5691 5691 5689 5690 5690 5688
5611 5617 5622 5627 5633 5635 5638 5642 5645 5648 5650 5652 5656 5660 5665 5669 5674 5674 5674 5676 5676 5678 5682 5684 5686 5686 5687 5686 5685 5686 5686 5686 5686 5686 5686 5687 5688 5686 5684 5684 5683 5683 5681 5677
5602 5606 5611 5614 5616 5626 5630 5635 5637 5638 5641 5643 5649 5651 5656 5660 5663 5665 5666 5667 5668 5669 5672 5676 5680 5681 5681 5681 5680 5680 5680 5679 5679 5680 5680 5681 5680 5679 5678 5678 5678 5677 5674 5672
5591 5595 5599 5604 5607 5611 5621 5626 5625 5630 5633 5635 5636 5640 5645 5650 5653 5655 5658 5659 5661 5662 5663 5667 5670 5672 5675 5675 5674 5673 5674 5672 5671 5670 5671 5671 5672 5671 5671 5670 5669 5668 5668 5666
5585 5588 5591 5595 5599 5601 5610 5615 5616 5619 5623 5628 5630 5635 5636 5639 5644 5646 5650 5651 5652 5654 5654 5655 5661 5663 5666 5667 5667 5665 5665 5665 5663 5662 5662 5663 5663 5663 5662 5662 5661 5660 5659 5659
5575 5580 5582 5587 5589 5592 5604 5603 5608 5610 5615 5618 5620 5623 5627 5631 5637 5638 5640 5642 5645 5647 5648 5648 5649 5655 5657 5658 5657 5657 5655 5654 5657 5656 5654 5654 5655 5656 5655 5655 5654 5652 5651 5650
5564 5567 5572 5576 5579 5589 5596 5600 5598 5599 5608 5611 5611 5615 5618 5619 5622 5629 5631 5632 5633 5637 5640 5641 5642 5644 5647 5648 5649 5648 5646 5645 5645 5647 5647 5647 5646 5646 5647 5646 5645 5644 5641 5641
5556 5558 5563 5569 5571 5576 5588 5588 5586 5591 5598 5602 5599 5602 5606 5610 5611 5619 5623 5623 5625 5628 5630 5632 5633 5634 5637 5638 5639 5638 5637 5638 5638 5638 5638 5638 5638 5638 5637 5636 5635 5633 5633 5631
5551 5554 5558 5560 5562 5569 5577 5578 5577 5581 5588 5586 5590 5593 5596 5599 5602 5608 5611 5613 5615 5617 5620 5622 5623 5625 5626 5628 5629 5629 5629 5627 5628 5627 5627 5626 5626 5626 5625 5624 5623 5622 5621 5619
5547 5550 5553 5555 5559 5565 5565 5566 5569 5569 5572 5577 5581 5583 5587 5589 5590 5593 5598 5602 5605 5606 5610 5611 5613 5614 5617 5616 5618 5620 5620 5619 5617 5616 5616 5615 5614 5614 5613 5612 5610 5609 5607 5606
5541 5544 5547 5551 5557 5558 5558 5556 5557 5559 5561 5568 5569 5573 5575 5576 5582 5584 5585 5589 5592 5594 5596 5600 5602 5603 5605 5606 5607 5607 5607 5608 5607 5606 5605 5604 5603 5602 5602 5601 5600 5597 5595 5593
5533 5534 5538 5542 5551 5549 5550 5550 5550 5548 5549 5555 5560 5561 5563 5567 5569 5571 5573 5575 5577 5581 5586 5586 5589 5591 5594 5594 5594 5595 5595 5595 5594 5594 5594 5593 5593 5591 5590 5588 5587 5584 5581 5579
5524 5526 5530 5536 5538 5541 5544 5542 5541 5542 5544 5548 5549 5554 5556 5555 5557 5560 5563 5565 5567 5570 5574 5574 5576 5580 5581 5582 5582 5583 5583 5582 5582 5581 5581 5580 5579 5578 5576 5574 5572 5569 5566 5564
5515 5518 5520 5527 5528 5532 5536 5533 5532 5537 5537 5539 5541 5544 5548 5548 5547 5550 5553 5554 5557 5560 5562 5564 5566 5567 5569 5569 5569 5570 5570 5570 5569 5567 5567 5567 5566 5564 5562 5560 5557 5555 5552 5550
Wind_Speed
37 38 24 20 23 26 28 27 20 21 26 32 30 25 25 24 16 14 15 14 10 9 8 7 7 7 6 8 11 15 3 9 13 21 20 27 23 28 21 21 26 26 27 27
44 40 24 28 29 28 27 25 20 19 25 31 28 23 23 23 14 13 13 11 8 11 6 7 5 5 6 7 6 8 10 6 8 10 14 20 25 27 28 33 26 29 30 29
45 37 32 31 31 32 29 21 22 23 30 30 30 21 18 22 13 13 15 11 6 8 6 5 2 4 5 7 6 5 6 9 9 11 14 16 25 29 32 32 29 29 30 29
48 41 34 34 31 31 30 21 26 27 29 29 30 19 19 27 14 14 16 8 7 7 8 8 7 6 8 7 7 4 1 4 5 6 8 8 10 14 20 24 23 22 21 22
46 38 37 36 28 33 26 27 32 30 31 30 25 27 13 21 21 13 15 13 12 8 9 9 9 7 7 6 6 5 5 2 2 2 4 6 10 11 15 15 15 13 14 16
47 41 41 39 33 38 30 32 34 30 29 30 21 27 14 13 20 11 17 15 13 9 10 10 10 9 6 7 8 6 5 5 5 3 2 3 6 10 12 13 13 14 14 14
43 35 37 39 39 40 36 34 34 33 31 26 24 28 20 15 21 9 20 18 18 17 15 10 11 13 10 7 8 8 6 4 4 4 3 4 5 6 9 12 14 14 14 16
35 33 34 34 36 36 35 34 35 33 32 30 29 32 22 18 23 10 13 17 22 21 17 12 12 14 12 9 8 6 7 6 6 6 8 7 8 7 7 9 12 14 15 17
36 38 33 33 34 36 36 37 31 34 37 36 30 32 26 20 23 19 13 16 19 13 17 14 12 13 16 13 12 12 10 10 11 13 11 11 11 12 13 12 14 13 13 14
42 41 40 35 36 39 41 36 38 40 40 36 33 30 21 23 26 21 14 17 24 18 18 15 11 12 14 15 17 16 14 15 16 15 15 16 17 18 18 17 17 19 19 19
40 42 39 38 39 40 42 42 42 40 40 39 34 31 18 21 25 22 19 21 26 23 21 21 18 15 16 15 15 15 16 19 21 19 20 20 21 24 24 24 22 22 24 27
44 43 42 39 39 40 41 43 41 45 44 40 38 34 24 20 23 24 21 19 19 23 27 24 25 21 18 17 18 19 20 21 26 27 25 25 26 24 27 29 33 26 25 36
47 48 48 46 43 44 46 44 43 44 45 42 40 38 23 24 24 26 24 27 23 28 25 26 23 26 20 19 22 22 22 24 24 23 22 21 18 20 24 21 17 25 27 21
47 48 49 48 47 45 47 46 46 46 46 46 43 38 30 26 21 27 29 28 26 24 27 24 21 25 23 23 21 23 22 22 22 22 20 21 21 23 22 19 18 19 23 17
46 48 49 52 50 47 51 49 49 49 48 48 42 39 35 31 31 29 29 33 30 28 26 24 26 25 26 27 24 26 26 27 29 28 26 21 24 25 22 22 22 21 21 20
50 51 50 51 53 51 47 50 51 48 50 50 47 43 41 34 32 34 31 35 33 34 33 29 30 29 28 30 30 26 28 33 35 34 31 28 27 26 23 23 25 23 22 23
51 44 47 47 45 45 48 46 48 53 50 49 49 47 46 41 35 37 34 36 34 32 33 34 30 28 27 32 32 33 31 36 38 35 37 37 35 27 25 28 28 25 26 26
55 50 52 52 49 47 45 39 43 46 47 47 48 48 46 43 37 35 35 40 40 33 29 28 31 28 31 34 38 30 31 35 37 35 32 31 30 28 29 30 30 29 30 30
35 59 58 57 55 47 42 37 34 37 44 44 45 46 44 43 42 35 35 40 41 36 33 35 29 25 29 31 30 27 26 27 31 29 30 31 32 31 30 30 30 33 32 33
26 31 49 55 57 58 51 48 43 27 43 39 47 42 40 37 44 35 34 39 40 38 32 32 33 29 25 28 31 33 28 28 30 31 33 33 33 32 32 32 32 33 35 38
19 19 22 27 38 50 55 55 55 46 42 34 38 44 46 38 36 35 39 40 42 41 35 34 35 32 33 31 33 33 33 30 33 33 36 36 36 36 37 37 38 39 40 41
23 22 21 23 24 23 25 33 48 55 54 39 33 36 41 37 40 37 36 39 41 46 40 39 41 43 40 35 37 35 32 31 33 36 37 38 40 40 40 41 42 44 44 44
28 26 26 25 21 24 28 32 31 32 49 51 35 35 42 44 41 41 41 38 44 50 50 41 41 35 37 36 38 37 39 37 39 39 36 37 38 39 41 44 46 46 45 45
36 35 34 31 25 26 31 34 34 34 31 55 52 33 48 39 35 39 44 45 47 45 41 44 48 45 35 42 40 46 41 42 43 40 41 39 39 41 42 43 44 45 46 46
42 42 40 37 36 34 32 36 38 32 29 37 45 48 36 46 45 38 35 34 45 48 43 46 45 46 43 47 51 46 47 45 42 41 39 43 42 43 44 46 48 50 51 51
47 47 47 43 42 40 34 36 41 31 32 28 34 30 32 31 36 38 36 36 36 39 37 42 45 50 46 44 37 46 47 49 50 50 47 47 49 50 50 51 52 52 51 53
Wind_Direction
251 251 251 253 254 252 247 264 278 278 283 280 282 290 297 302 275 270 262 286 302 321 354 331 266 249 288 327 339 342 227 196 225 221 223 211 221 214 219 236 227 229 227 218
245 250 247 241 245 253 256 263 280 281 280 276 278 289 303 299 269 258 258 281 283 302 351 353 291 286 303 321 351 15 66 125 204 217 216 222 211 217 220 228 225 217 211 219
247 250 239 237 239 248 259 273 275 273 274 276 280 286 300 292 267 245 259 281 284 295 300 305 305 266 310 297 325 1 76 114 138 159 171 201 220 209 208 212 217 225 222 231
244 243 240 245 242 249 257 267 266 271 268 271 277 289 294 284 269 236 238 245 252 290 291 279 280 296 286 282 278 263 182 119 136 165 158 150 166 182 215 229 227 222 217 217
245 245 245 245 242 246 250 248 256 263 269 271 277 282 284 284 292 230 232 228 252 251 256 270 275 296 293 276 267 278 296 310 264 165 145 158 162 163 171 180 185 194 187 189
237 236 234 236 232 238 238 240 252 259 265 272 281 281 273 280 277 234 222 224 236 253 255 266 259 250 245 260 257 259 275 299 303 296 254 206 195 185 181 186 187 194 202 208
235 238 236 238 234 239 241 245 254 256 263 280 278 272 275 278 274 275 232 227 238 247 264 268 242 242 236 254 250 244 252 276 311 319 306 274 249 225 210 214 208 205 206 216
242 241 244 242 242 243 245 246 250 260 267 268 264 264 269 274 273 269 235 235 241 252 246 253 240 242 237 244 242 232 235 237 241 254 268 269 270 263 254 246 231 221 224 227
235 240 240 238 233 237 239 242 254 254 253 258 259 265 276 270 266 260 231 251 245 222 242 240 230 234 238 242 241 244 253 260 261 268 270 273 275 271 262 251 243 228 232 248
227 234 235 234 232 232 235 236 241 245 252 255 261 262 274 264 258 251 245 234 242 239 245 233 230 233 236 243 251 253 251 257 258 268 273 273 275 277 279 280 261 255 247 253
235 236 233 231 231 232 235 238 242 245 249 254 258 261 264 252 266 246 249 242 245 240 224 228 228 240 250 253 257 258 255 260 265 263 268 273 279 281 282 274 268 266 259 263
235 236 237 235 227 231 234 235 236 243 246 255 259 257 262 255 264 260 237 231 236 239 227 230 240 239 243 257 258 262 265 264 264 262 272 279 280 286 298 282 275 250 256 250
239 239 239 238 236 237 239 240 238 241 247 248 251 255 249 257 254 256 251 243 236 229 237 239 248 241 241 245 259 263 267 259 264 269 268 278 291 282 277 272 284 244 284 263
238 237 240 242 235 234 238 239 241 242 246 250 255 258 255 260 250 253 259 257 253 246 244 238 247 239 248 252 256 262 262 249 253 266 279 283 285 279 276 280 282 282 285 286
237 240 237 241 242 235 238 244 244 245 246 247 254 255 258 253 256 254 249 250 250 249 254 238 221 243 254 254 256 257 260 263 266 270 273 279 281 274 274 273 278 278 289 287
233 236 242 243 244 246 234 237 243 245 247 250 246 247 250 246 253 255 255 251 254 251 252 246 247 241 242 251 261 264 269 268 271 272 271 274 288 275 268 264 272 275 279 279
236 242 238 239 243 248 246 238 239 243 247 248 252 255 253 251 247 250 254 257 260 257 251 259 252 250 257 254 256 271 266 264 269 278 278 276 278 268 265 266 272 273 276 274
241 237 237 235 240 242 243 246 239 240 245 246 251 253 259 264 259 254 255 261 266 259 257 267 267 259 258 260 267 274 276 278 264 273 271 268 265 265 270 272 275 276 275 276
246 237 238 240 246 240 235 240 243 243 242 249 253 255 258 253 255 248 255 262 265 264 263 260 256 263 252 263 266 271 289 283 274 267 264 265 269 271 270 273 276 277 276 278
246 249 246 243 247 250 238 251 261 253 244 240 248 249 251 257 256 241 252 264 269 270 264 258 256 260 258 266 272 277 285 277 272 266 269 272 271 271 273 276 281 284 285 286
243 251 254 252 253 252 251 255 260 251 247 254 245 249 248 247 255 251 251 257 260 258 255 253 251 252 254 261 269 279 279 274 270 272 274 275 276 278 279 280 283 284 283 282
241 245 248 255 264 266 265 262 258 259 257 251 255 241 249 250 246 252 260 257 256 254 253 256 245 247 255 256 264 276 276 280 274 277 279 277 278 280 282 282 283 284 284 284
249 256 253 257 267 269 270 274 272 266 256 252 253 240 246 248 250 254 254 252 251 250 256 253 262 248 255 259 270 262 275 279 279 279 275 277 278 280 282 280 279 279 280 281
248 255 259 261 269 270 271 275 271 273 262 252 256 248 227 238 247 250 257 258 251 255 261 262 253 255 254 237 253 266 271 271 276 276 274 273 276 280 281 283 284 284 285 285
249 254 258 262 267 271 282 275 278 275 272 267 262 258 245 225 239 250 249 258 253 254 260 262 265 261 265 259 263 270 269 272 276 276 271 280 283 286 287 288 286 285 284 285
251 254 257 260 264 268 269 267 269 260 249 252 259 254 262 266 233 235 249 259 252 249 256 258 259 260 268 260 252 260 273 271 272 277 278 281 282 287 286 287 284 283 284 285